Starlink 11405

operational
NORAD ID: 63008 Int'l Des: 2025-032 Owner: SPXS Country: US Constellation: starlink
LEOCIRCULAR

Über Starlink 11405

Beschreibung wird geladen...

Live-Position

3D-Globus wird geladen...

Nächste Überflüge

Höhenverlauf

Altitude vs Time

uPlot chart will show altitude changes over time

Zweizeiliger Elementsatz

1 63008U 25032D 25354.29099167 .00224774 00000-0 17037-2 0 9997
2 63008 42.9998 314.1813 0001067 239.4720 120.6042 15.70903787 49579
Epoch: 20. Dez. 2025 • Age: 22 hours

Aktueller Status

Höhe 358.7 km
Geschwindigkeit 7.70 km/s
Subsatellitenpunkt 42.51°N, 110.58°W
Startdatum 15. Feb. 2025
Alter 0.8 years
Typ internet

Technische Details

Klassifizierung Payload
Masse 960.00 kg
Trockenmasse 910.00 kg
Gesamtmasse 960.00 kg
Länge 0.30 m
Durchmesser 4.10 m
Spannweite 29.00 m
Form Box + pan
Hersteller SPXS
Bus-Typ Starlink V2MD
Phasenstatus In Orbit
Besitzer/Staat SPXS/US

Große Konstellationen

Loading constellations...